STARLINK-1794 (46695 NORAD) Tracking and Keplerian Element Data
This shows tracking and keplerian element data for the satellite.
Feedback or suggestion? Click here.
Element | Value |
Catalog | 46695 |
Name | STARLINK-1794 |
Epoch Orbit | 1453 |
Epoch Day | 17.91667824 |
Epoch Year | 2021 |
RAAN | 41.7747 |
Inclination | 53.0584 |
Eccentricity | 4.56E-05 |
Argument of Perigee | 212.3381 |
Mean Anonmoly | 2.0165 |
Mean Motion | 15.06382323 |
Decay Rate | 0.00037463 |
L1 | 1 46695U 20073AB 21017.91667824 .00037463 00000-0 25218-2 0 9999 |
L2 | 2 46695 53.0584 41.7747 0000456 212.3381 2.0165 15.06382323 14532 |
Live tracking and technical data element details for STARLINK-1794 (NORAD 46695). STARLINK-1794 can be tracked NOW for your location showing map with azimuth and elevation plus other details from your city location.
Track the satellite on the map from your city or location and see movement details for azimuth, elevation, latitude, longitude, range, height, and movement on the map or in text.
IsCatalogInMostPopularTable: catalog: 46695, numindb: 26
Update: records affected: 1
GetName: 46695 STARLINK-1794
Hit Count: updated at: Tue, 19 Jan 2021 02:27:48 GMT